Regional Weather Roundup
Issued by NWS Grand Forks, ND

Home | Current Version | Previous Version | Text Only | Print | Product List | Glossary On
Versions: 1 2 3 4 5 6 7 8 9 10 11 12 13 14 15 16 17 18 19 20 21 22 23 24 25 26 27 28 29 30 31 32 33 34 35 36 37 38 39 40 41 42 43 44 45 46 47 48 49 50
000
ASUS43 KFGF 211831
RWRFGF
PRAIRIE TO PINES  WEATHER ROUNDUP
NATIONAL WEATHER SERVICE EASTERN NORTH DAKOTA/GRAND FORKS ND
100 PM CDT FRI JUL 21 2017

 **SATELLITE DATA USED TO AUGMENT SKY COVER AT AUTOMATED STATIONS**
 *****  WEATHER ACROSS EASTERN NORTH DAKOTA  *****

CITY           SKY/WX    TMP DP  RH WIND       PRES   REMARKS
GRAND FORKS    CLOUDY    83  73  72 VRB3      29.77F THUNDER
6HR MIN TEMP:  73; 6HR MAX TEMP:  84;

GRAND FRKS AFB PTSUNNY   86  69  56 S3        29.79S HX  90
DEVILS LAKE    FAIR      84  66  54 SW13      29.79F
6HR MIN TEMP:  67; 6HR MAX TEMP:  86;

FARGO          FAIR      90  69  50 W6        29.77S HX  94
WAHPETON ARPT  FAIR      82  72  69 SE6       29.79S
$$

 ***** WEATHER ACROSS CENTRAL AND WESTERN NORTH DAKOTA  *****

CITY           SKY/WX    TMP DP  RH WIND       PRES   REMARKS
BISMARCK       FAIR      84  68  58 S7        29.82F
6HR MIN TEMP:  66; 6HR MAX TEMP:  85;

MINOT          FAIR      71  64  78 N12G17    29.80R
6HR MIN TEMP:  63; 6HR MAX TEMP:  76; 6HR PCP:  0.10;

JAMESTOWN      FAIR      88  60  38 E7        29.81S
6HR MIN TEMP:  68; 6HR MAX TEMP:  88;

MINOT AFB      FAIR      72  64  75 E10       29.77F
GARRISON         N/A     77  65  66 VRB3      29.84R
WILLISTON      FAIR      85  60  42 N7        29.84R
6HR MIN TEMP:  66; 6HR MAX TEMP:  87; 6HR PCP: TRACE;

DICKINSON      FAIR      85  64  49 CALM      29.85R
6HR MIN TEMP:  67; 6HR MAX TEMP:  86;

HETTINGER      FAIR      84  62  47 CALM      29.87S
6HR MIN TEMP:  65; 6HR MAX TEMP:  85;

$$

 *****  OTHER AIRPORT OBSERVATIONS IN OUR AREA  *****

CITY           SKY/WX    TMP DP  RH WIND       PRES   REMARKS
WALHALLA       NOT AVBL
GRAFTON AIRPOR FAIR      82  72  69 SE10      29.78F
VALLEY CITY AR MOCLDY    86  64  48 W7        29.82F
CANDO          NOT AVBL
CAVALIER APRT  FAIR      77  72  83 E8        29.77F
GWINNER        CLEAR     88  73  62 CALM      29.79S HX  96
SHEYENNE NWR     N/A     89  73  58 W7        29.95S HX  97
ROLLA            N/A     72  72 100 SE5       29.86R
 ***** THE ABOVE OBSERVATIONS ARE NON NWS ARE NOT QUALITY
       CONTROLLED AND MAY MIS-REPORT RAIN FOR SNOW...
$$

  *****  WEATHER ACROSS NORTHERN MINNESOTA  *****

CITY           SKY/WX    TMP DP  RH WIND       PRES   REMARKS
FLAG ISLAND    FAIR      75  57  53 E6        29.85F
WARROAD        FAIR      75  66  73 NE8       29.84F
ROSEAU         FAIR      77  68  73 E3        29.83F
HALLOCK        FAIR      75  70  83 SE5       29.80R
THF RVR FALLS  PTSUNNY   81  71  71 S7        29.81F
6HR MIN TEMP:  67; 6HR MAX TEMP:  83;

BAUDETTE       FAIR      80  59  48 SE16      29.85F
6HR MIN TEMP:  61; 6HR MAX TEMP:  80;

WASKISH        FAIR      82  66  57 SE12      29.82F
CROOKSTON      FAIR      82  72  69 SW9       29.79F
STEPHEN NDAWN    N/A     81  72  74 SE6         N/A
$$
  *****  WEATHER ACROSS CENTRAL AND WEST MINNESOTA  *****

CITY           SKY/WX    TMP DP  RH WIND       PRES   REMARKS
FOSSTON        FAIR      82  68  61 S10       29.82F
BEMIDJI        FAIR      84  61  46 SE14G21   29.84F
PARK RAPIDS    FAIR      84  62  47 S13G26    29.85S
6HR MIN TEMP:  70; 6HR MAX TEMP:  86;

ELBOW LAKE     MOCLDY    82  74  77 S10       29.83S
6HR MIN TEMP:  70; 6HR MAX TEMP:  81;

WADENA         PTSUNNY   81  70  69 SE9       29.83F
DETROIT LAKES  FAIR      82  70  65 SE9       29.83F
MOORHEAD       FAIR      88  72  58 S3        29.78F HX  94
FERGUS FALLS   FAIR      82  72  69 S7        29.80S
MORRIS MN      FAIR      84  70  61 S12       29.83R
STAPLES        PTSUNNY   81  66  61 SE9       29.85S
$$
  *****  WEATHER ELSEWHERE ACROSS MINNESOTA  *****

CITY           SKY/WX    TMP DP  RH WIND       PRES   REMARKS
DULUTH         FAIR      72  64  76 SE10      29.94F
6HR MIN TEMP:  64; 6HR MAX TEMP:  73;

INTRNTL FALLS  FAIR      75  59  57 E10       29.90F
6HR MIN TEMP:  59; 6HR MAX TEMP:  75;

ELY            FAIR      77  57  50 E5        29.94F
CLOQUET        FAIR      73  63  68 E9        29.92F
WHEATON        FAIR      84  73  70 SE7       29.81F HX  91
BRAINERD       FAIR      81  66  60 SE13G18   29.86F
6HR MIN TEMP:  66; 6HR MAX TEMP:  81;

HIBBING        FAIR      80  65  59 S8        29.92S
6HR MIN TEMP:  59; 6HR MAX TEMP:  80;

ALEXANDRIA     FAIR      80  72  76 SE12      29.86S
6HR MIN TEMP:  69; 6HR MAX TEMP:  81;

SAINT CLOUD    FAIR      79  72  79 SE14      29.87R
6HR MIN TEMP:  66; 6HR MAX TEMP:  79;

MINNEAPOLIS    CLOUDY    75  69  81 SE14      29.89S
6HR MIN TEMP:  72; 6HR MAX TEMP:  76; 6HR PCP: TRACE;

$$

  *****  WEATHER ACROSS SOUTH DAKOTA  *****

CITY           SKY/WX    TMP DP  RH WIND       PRES   REMARKS
SIOUX FALLS    PTSUNNY   82  72  71 E8        29.83R
6HR MIN TEMP:  72; 6HR MAX TEMP:  82; 6HR PCP:  0.05;

BROOKINGS      FAIR      82  71  69 S8        29.85R
WATERTOWN      FAIR      85  70  60 S10       29.83R
6HR MIN TEMP:  71; 6HR MAX TEMP:  85;

HURON          FAIR      87  71  58 S8        29.80F HX  93
6HR MIN TEMP:  72; 6HR MAX TEMP:  87; 6HR PCP: TRACE;

SISSETON         N/A     86  74  67 CALM      29.79F HX  94
ABERDEEN       FAIR      84  72  67 VRB3      29.81F
6HR MIN TEMP:  70; 6HR MAX TEMP:  85;

MITCHELL       FAIR      86  70  58 S9        29.82R HX  90
PIERRE         NOT AVBL
MOBRIDGE       FAIR      87  74  64 CALM      29.79F HX  95
RAPID CITY     FAIR      90  57  32 N17G23    29.91S
6HR MIN TEMP:  63; 6HR MAX TEMP:  91;

$$

  *****  SOME WEATHER IN NEARBY STATES *****

CITY           SKY/WX    TMP DP  RH WIND       PRES   REMARKS
GLASGOW MT     FAIR      84  39  20 MISG      29.88S
6HR MIN TEMP:  66; 6HR MAX TEMP:  85;

GREAT FALLS MT FAIR      79  21  11 SW18G29   30.01S
6HR MIN TEMP:  54; 6HR MAX TEMP:  81;

CHEYENNE WY    FAIR      83  42  23 NW15      30.19S
6HR MIN TEMP:  63; 6HR MAX TEMP:  85;

SCOTTSBLUFF NE FAIR      89  58  34 W7        30.01F
6HR MIN TEMP:  65; 6HR MAX TEMP:  90;

OMAHA NE       FAIR      97  71  42 S10       29.80S HX 104
6HR MIN TEMP:  82; 6HR MAX TEMP:  97;

DES MOINES IA  FAIR      95  73  48 SE12      29.84F HX 104
6HR MIN TEMP:  76; 6HR MAX TEMP:  95;

DAVENPORT IA   FAIR      85  74  69 S12       29.95F HX  92
6HR MIN TEMP:  72; 6HR MAX TEMP:  85; 6HR PCP:  0.08;

CHICAGO IL     PTSUNNY   86  71  60 S9        29.96F HX  91
6HR MIN TEMP:  75; 6HR MAX TEMP:  86;

EAU CLAIRE WI  LGT RAIN  73  70  90 S12       29.92F
6HR MIN TEMP:  64; 6HR MAX TEMP:  76; 6HR PCP:  0.01;

LA CROSSE WI   LGT RAIN  74  71  91 SE5       29.93F
6HR MIN TEMP:  70; 6HR MAX TEMP:  74; 6HR PCP:  0.40;

$$

  *****  SOME NATIONAL WEATHER *****

CITY           SKY/WX    TMP DP  RH WIND       PRES   REMARKS
LA GUARDIA NY  PTSUNNY   90  67  46 NW13      29.87F HX  93
6HR MIN TEMP:  80; 6HR MAX TEMP:  91;

RALEIGH NC     PTSUNNY   97  69  40 SW16      30.00F HX 103
6HR MIN TEMP:  79; 6HR MAX TEMP:  98;

ATLANTA GA     FAIR      91  71  51 VRB5      30.05F HX  97
6HR MIN TEMP:  77; 6HR MAX TEMP:  92;

NEW ORLEANS LA PTSUNNY   92  73  53 NE6       30.02F HX 100
6HR MIN TEMP:  78; 6HR MAX TEMP:  94;

OKLAHOMA CITY  FAIR      97  66  36 S10G20    29.97F HX 100
6HR MIN TEMP:  75; 6HR MAX TEMP:  98;

ALBUQUERQUE NM FAIR      83  53  35 S8        30.21F
6HR MIN TEMP:  67; 6HR MAX TEMP:  83;

SALT LAKE CITY FAIR      90  52  27 S3        30.07S
6HR MIN TEMP:  77; 6HR MAX TEMP:  90;

LOS ANGELES CA FAIR      75  64  68 SW9       29.97S
6HR MIN TEMP:  67; 6HR MAX TEMP:  76;

BOISE ID       FAIR      80  46  30 W9        30.09S
6HR MIN TEMP:  58; 6HR M


USA.gov is the U.S. government's official web portal to all federal, state and local government web resources and services.